Location: Eaton
(41.3139°N, 82.0207°W)
Time: 02:15:29
(UTC+00:00)

ATLAS 3B R/B - Pass Details

Date: 17 June 2021
Orbit: 1003 x 1191 km, 63.8° (Epoch: 21 July)

Event Time Altitude Azimuth Distance (km) Brightness Sun altitude
Exits shadow 02:39:13 13° 174° (S) 2,540 4.2 -14.3°
Maximum altitude 02:44:20 36° 113° (ESE) 1,541 3.1 -14.9°
Drops below altitude 10° 02:50:18 10° 49° (NE) 2,843 5.0 -15.6°
Sets 02:53:10 0° 42° (NE) 3,825 5.8 -15.9°
